Madison, MN

11:56 PM CDT on April 27, 2017 (GMT -0500)
Madison-Lac Qui Parle County

Weather History for KDXX - August, 2014

Change the Weather History Date:

Tuesday, August 26, 2014

  Actual Average (KAQP) Record (KAQP)
Temperature  
Mean Temperature 60 °F -  
Max Temperature 69 °F 77 °F 96 °F (2013)
Min Temperature 50 °F 55 °F 44 °F (2015)
Degree Days  
Heating Degree Days 6    
Growing Degree Days 10 (Base 50)    
Moisture  
Dew Point 53 °F    
Average Humidity 78    
Maximum Humidity 94    
Minimum Humidity 56    
Precipitation  
Precipitation 0.00 in - - ()
Sea Level Pressure  
Sea Level Pressure 30.18 in    
Wind  
Wind Speed 3 mph (NNW)    
Max Wind Speed 8 mph    
Max Gust Speed -    
Visibility 10 miles    
Events      
Averages and records for this station are not official NWS values.
T = Trace of Precipitation, MM = Missing Value Source: NWS Daily Summary

Daily Weather History Graph

Daily Weather History Graph

Search for Another Location

Airport or City:

Trip Planner

Search our weather history database for the weather conditions in past years. The results will help you decide how hot, cold, wet, or windy it might be!

Date:

Astronomy

Aug. 26, 2014 Rise Set
Actual Time 6:39 AM CDT 8:12 PM CDT
Civil Twilight 6:08 AM CDT 8:43 PM CDT
Nautical Twilight 5:31 AM CDT 9:20 PM CDT
Astronomical Twilight 4:51 AM CDT 10:00 PM CDT
Moon 7:45 AM CDT (8/26) 8:28 PM CDT (8/26)
Length of Visible Light 14h 34m
Length of Day
13h 32m
New Moon, 1% of the Moon is Illuminated
Aug 26
New Moon
Sep 2
First Quarter
Sep 8
Full
Sep 15
Last Quarter
Sep 24
New

Hourly Weather History & Observations

Time (CDT) Temp. Dew Point Humidity Pressure Visibility Wind Dir Wind Speed Gust Speed Precip Events Conditions
12:13 AM 57.2 °F 51.8 °F 82% 30.14 in 10.0 mi NW 4.6 mph - N/A   Clear
12:34 AM 55.4 °F 51.8 °F 88% 30.15 in 10.0 mi NW 4.6 mph - N/A   Clear
12:53 AM 55.4 °F 51.8 °F 88% 30.15 in 10.0 mi WNW 5.8 mph - N/A   Clear
1:13 AM 55.4 °F 51.8 °F 88% 30.15 in 10.0 mi NW 4.6 mph - N/A   Clear
1:34 AM 55.4 °F 51.8 °F 88% 30.14 in 10.0 mi NW 5.8 mph - N/A   Clear
1:53 AM 53.6 °F 51.8 °F 94% 30.13 in 10.0 mi NNW 8.1 mph - N/A   Clear
2:13 AM 55.4 °F 51.8 °F 88% 30.13 in 10.0 mi NNW 4.6 mph - N/A   Clear
2:34 AM 53.6 °F 50.0 °F 88% 30.13 in 10.0 mi WNW 4.6 mph - N/A   Clear
2:54 AM 53.6 °F 50.0 °F 88% 30.14 in 10.0 mi WNW 3.5 mph - N/A   Clear
3:13 AM 53.6 °F 50.0 °F 88% 30.15 in 10.0 mi West 3.5 mph - N/A   Clear
3:34 AM 53.6 °F 50.0 °F 88% 30.15 in 10.0 mi WNW 5.8 mph - N/A   Clear
3:54 AM 51.8 °F 50.0 °F 94% 30.16 in 10.0 mi West 4.6 mph - N/A   Clear
4:13 AM 51.8 °F 48.2 °F 88% 30.17 in 10.0 mi West 4.6 mph - N/A   Clear
4:34 AM 51.8 °F 48.2 °F 88% 30.18 in 10.0 mi SW 3.5 mph - N/A   Clear
4:53 AM 51.8 °F 48.2 °F 88% 30.18 in 10.0 mi Calm Calm - N/A   Clear
5:13 AM 51.8 °F 48.2 °F 88% 30.19 in 10.0 mi Calm Calm - N/A   Clear
5:34 AM 50.0 °F 48.2 °F 94% 30.19 in 10.0 mi West 4.6 mph - N/A   Clear
5:53 AM 51.8 °F 48.2 °F 88% 30.18 in 10.0 mi NW 8.1 mph - N/A   Clear
6:13 AM 51.8 °F 48.2 °F 88% 30.19 in 10.0 mi NW 3.5 mph - N/A   Clear
6:34 AM 51.8 °F 48.2 °F 88% 30.19 in 10.0 mi Calm Calm - N/A   Clear
6:53 AM 50.0 °F 48.2 °F 94% 30.20 in 10.0 mi South 5.8 mph - N/A   Clear
7:13 AM 50.0 °F 48.2 °F 94% 30.21 in 10.0 mi SSW 3.5 mph - N/A   Clear
7:34 AM 51.8 °F 50.0 °F 94% 30.21 in 10.0 mi Calm Calm - N/A   Clear
7:53 AM 53.6 °F 51.8 °F 94% 30.22 in 10.0 mi SSW 3.5 mph - N/A   Clear
8:13 AM 55.4 °F 51.8 °F 88% 30.22 in 10.0 mi SSW 3.5 mph - N/A   Clear
8:34 AM 57.2 °F 53.6 °F 88% 30.23 in 10.0 mi SW 3.5 mph - N/A   Clear
8:53 AM 57.2 °F 53.6 °F 88% 30.23 in 10.0 mi Calm Calm - N/A   Clear
9:13 AM 60.8 °F 53.6 °F 77% 30.23 in 10.0 mi Calm Calm - N/A   Clear
9:34 AM 62.6 °F 53.6 °F 72% 30.22 in 10.0 mi Calm Calm - N/A   Clear
9:53 AM 62.6 °F 48.2 °F 59% 30.22 in 10.0 mi Calm Calm - N/A   Clear
10:13 AM 62.6 °F 50.0 °F 63% 30.21 in 10.0 mi Calm Calm - N/A   Clear
10:34 AM 62.6 °F 51.8 °F 68% 30.21 in 10.0 mi ENE 4.6 mph - N/A   Clear
10:53 AM 64.4 °F 51.8 °F 64% 30.21 in 10.0 mi Calm Calm - N/A   Clear
11:14 AM 64.4 °F 51.8 °F 64% 30.21 in 10.0 mi Calm Calm - N/A   Clear
11:34 AM 64.4 °F 51.8 °F 64% 30.21 in 10.0 mi Calm Calm - N/A   Clear
11:53 AM 64.4 °F 51.8 °F 64% 30.21 in 10.0 mi Calm Calm - N/A   Clear
12:14 PM 66.2 °F 53.6 °F 64% 30.21 in 10.0 mi Calm Calm - N/A   Clear
12:34 PM 66.2 °F 53.6 °F 64% 30.21 in 10.0 mi Calm Calm - N/A   Clear
12:53 PM 66.2 °F 51.8 °F 60% 30.19 in 10.0 mi North 4.6 mph - N/A   Clear
1:13 PM 68.0 °F 53.6 °F 60% 30.19 in 10.0 mi North 4.6 mph - N/A   Clear
1:34 PM 68.0 °F 53.6 °F 60% 30.20 in 10.0 mi NE 3.5 mph - N/A   Clear
1:53 PM 69.8 °F 55.4 °F 60% 30.20 in 10.0 mi Calm Calm - N/A   Clear
2:13 PM 68.0 °F 53.6 °F 60% 30.20 in 10.0 mi North 3.5 mph - N/A   Clear
2:34 PM 69.8 °F 55.4 °F 60% 30.20 in 10.0 mi Calm Calm - N/A   Clear
2:53 PM 69.8 °F 55.4 °F 60% 30.19 in 10.0 mi Calm Calm - N/A   Clear
3:13 PM 69.8 °F 55.4 °F 60% 30.17 in 10.0 mi ENE 3.5 mph - N/A   Clear
3:33 PM 69.8 °F 53.6 °F 56% 30.18 in 10.0 mi Calm Calm - N/A   Clear
4:13 PM 69.8 °F 55.4 °F 60% 30.18 in 10.0 mi Calm Calm - N/A   Clear
4:33 PM 69.8 °F 55.4 °F 60% 30.18 in 10.0 mi Calm Calm - N/A   Clear
4:53 PM 68.0 °F 55.4 °F 64% 30.18 in 10.0 mi Calm Calm - N/A   Clear
5:14 PM 69.8 °F 55.4 °F 60% 30.18 in 10.0 mi Calm Calm - N/A   Clear
5:33 PM 68.0 °F 55.4 °F 64% 30.18 in 10.0 mi Calm Calm - N/A   Clear
5:53 PM 68.0 °F 55.4 °F 64% 30.18 in 10.0 mi Calm Calm - N/A   Clear
6:13 PM 68.0 °F 57.2 °F 68% 30.17 in 10.0 mi NNE 3.5 mph - N/A   Clear
6:34 PM 68.0 °F 57.2 °F 68% 30.16 in 10.0 mi NE 4.6 mph - N/A   Clear
6:53 PM 66.2 °F 59.0 °F 78% 30.16 in 10.0 mi NE 4.6 mph - N/A   Scattered Clouds
7:13 PM 66.2 °F 59.0 °F 78% 30.15 in 10.0 mi NE 3.5 mph - N/A   Scattered Clouds
7:34 PM 66.2 °F 59.0 °F 78% 30.15 in 10.0 mi NE 3.5 mph - N/A   Mostly Cloudy
7:53 PM 66.2 °F 59.0 °F 78% 30.15 in 10.0 mi NE 4.6 mph - N/A   Mostly Cloudy
8:14 PM 64.4 °F 59.0 °F 83% 30.14 in 10.0 mi NE 4.6 mph - N/A   Mostly Cloudy
8:34 PM 64.4 °F 57.2 °F 77% 30.15 in 10.0 mi NE 5.8 mph - N/A   Scattered Clouds
8:53 PM 64.4 °F 57.2 °F 77% 30.15 in 10.0 mi NE 5.8 mph - N/A   Clear
9:14 PM 62.6 °F 57.2 °F 82% 30.16 in 10.0 mi NE 4.6 mph - N/A   Clear
9:34 PM 62.6 °F 57.2 °F 82% 30.17 in 10.0 mi ENE 3.5 mph - N/A   Scattered Clouds
9:53 PM 62.6 °F 57.2 °F 82% 30.17 in 10.0 mi NE 3.5 mph - N/A   Scattered Clouds
10:14 PM 62.6 °F 57.2 °F 82% 30.18 in 10.0 mi Calm Calm - N/A   Clear
10:34 PM 62.6 °F 59.0 °F 88% 30.18 in 10.0 mi Calm Calm - N/A   Scattered Clouds
10:53 PM 62.6 °F 59.0 °F 88% 30.19 in 10.0 mi Calm Calm - N/A   Mostly Cloudy
11:14 PM 62.6 °F 59.0 °F 88% 30.19 in 10.0 mi Calm Calm - N/A   Overcast
11:34 PM 62.6 °F 60.8 °F 94% 30.19 in 10.0 mi Calm Calm - N/A   Overcast
11:53 PM 62.6 °F 60.8 °F 94% 30.19 in 10.0 mi Calm Calm - N/A   Overcast